COSMOS 1691 DEB, 19111

Orbit data source: Space-Track

COSMOS 1691 DEB, 19111 is space debris in LEO originally from a launch on Wed, 09 Oct 1985 UTC launched from the Plesetsk Missile And Space Complex (PKMTR). Debris objects in space refer to the collection of defunct objects orbiting the Earth. Examples of debris include non-operational satellites, rocket bodies, and fragments generated from explosions, collisions, or faulty payload assembly.

Loading next visibility...
Identifier
19111, 1985-094W
Orbit
LEO
Country
Flag of CISCIS
Related business
Manufacturer
Unknown
Mission
Spacecraft
Bus & Motor
Unknown
Mass
Unknown
Launch date (UTC)
1985-10-09 (40 years ago)
Launch vehicle
Unknown
Launch site
Plesetsk Missile And Space Complex (PKMTR)
Object type
Payload
Rocket body
Debris
Shape & HBR
Unknown shape, 0.1 m
Radar Cross Section
Small (<0.1 m²)

Expand to show TLE details & history
Last TLE update: 7 hours ago

TLE from 7 hours ago
0 COSMOS 1691 DEB
1 19111U 85094W   25295.44491273  .00000330  00000-0  16042-2 0  9997
2 19111  82.6100 358.4252 0012115 222.6002 166.0220 12.70128408743111
Epoch: 2025-10-22T10:40Z
TLE epoch observation values (Epoch: 2025-10-22T10:40:40.459Z)
Latitude
28.43675°
Longitude
171.14578°
Altitude
1,393.922 km
Speed
7.161 km/s
True Right ascension
00h 09m 43s
True Declination
28° 18' 17"
Sunlit
Object was in full shadow at epoch
Visualization orbit readout
Latitude
Unknown
Longitude
Unknown
Altitude
Unknown
Speed
Unknown
Apparent Right ascension
Unknown
Apparent Declination
Unknown
Sunlit
N/A
Visualization observer readout
Local Sidereal Time
13:13:34
Azimuth
Unknown
Elevation
Unknown
Doppler factor
Unknown
Orbital elements
Apogee altitude
1,388.123 km
Perigee altitude
1,369.328 km
Semi-major axis
7,756.862 km
Eccentricity
0.00121
Inclination
82.61°
RAAN
358.4252°
Arg. of periapsis
222.6002°
True anomaly
166.05548°
Mean anomaly
166.022°
Eccentric anomaly
166.03875°
Mean motion
3.17698 °/min
Orbital period
113.32 mins
BSTAR
0.0016042
Loading maneuver chart data...
Computing Atmospheric mass density...
Loading historical data...
Loading historical data...
Loading historical data...
Loading historical data...
Loading historical data...
Loading historical data...
Loading historical data...

Documentation

Showing up to 5 results
|